Regional Weather Roundup
Issued by NWS

Home | Current Version | Previous Version | Graphics & Text | Print | Product List | Glossary Off
Versions: 1 2 3 4 5 6 7 8 9 10 11 12 13 14 15 16 17 18 19 20 21 22 23 24 25 26 27 28 29 30 31 32 33 34 35 36 37 38 39 40 41 42 43 44 45 46 47 48 49 50

000
ASUS43 KMPX 290910
RWRMN
WEATHER ROUNDUP FOR MINNESOTA
NATIONAL WEATHER SERVICE TWIN CITIES/CHANHASSEN MN
400 AM CDT WED JUL 29 2015


NOTE: "FAIR" INDICATES FEW OR NO CLOUDS BELOW 12,000 FEET WITH NO
SIGNIFICANT WEATHER AND/OR OBSTRUCTIONS TO VISIBILITY. N/A MEANS
CURRENT SKY AND/OR WEATHER CONDITIONS ARE NOT AVAILABLE.

MNZ060>063-068>070-291000-
   Twin Cities Metro

CITY           SKY/WX    TMP DP  RH WIND       PRES   REMARKS
TWIN CITIES    CLEAR     67  54  63 SW9       29.92S
ST PAUL        CLEAR     66  55  67 SW6       29.92S
CRYSTAL        CLEAR     69  51  52 SW10      29.89F
BLAINE         CLEAR     70  52  52 SW9       29.90S
LAKEVILLE      CLEAR     63  55  77 SW5       29.94F
EDEN PRAIRIE   CLEAR     63  56  78 SW8       29.92F
SOUTH ST PAUL  CLEAR     67  53  59 SW7       29.92S
LAKE ELMO      FAIR      64  57  77 S8        29.92S
$$
MNZ001>005-007-008-013>017-022>024-027-028-291000-
   Northwest Minnesota

CITY           SKY/WX    TMP DP  RH WIND       PRES   REMARKS
BEMIDJI        CLOUDY    63  51  65 SW21G32   29.66S
HALLOCK        CLOUDY    64  57  77 W20G30    29.47R
ROSEAU         CLOUDY    61  54  77 SW21G30   29.46S
WARROAD        CLOUDY    61  55  82 S17G26    29.46S
THIEF RVR FALL CLOUDY    63  54  72 SW21G29   29.57S
CROOKSTON      CLOUDY    64  54  68 W21G31    29.62R
FOSSTON        CLOUDY    61  52  72 SW18G31   29.66R
DETROIT LAKES  CLOUDY    64  50  59 W14G28    29.77S
MOORHEAD       CLOUDY    64  52  63 W21G26    29.76R
PARK RAPIDS    CLOUDY    65  49  56 W20G35    29.72F
MAHNOMEN       CLOUDY    62  52  69 SW17G29   29.70S
$$
MNZ006-009>011-018-025>026-291000-
   North Central Minnesota

CITY           SKY/WX    TMP DP  RH WIND       PRES   REMARKS
BAUDETTE       CLOUDY    62  53  72 SW24G38   29.49F
FLAG ISLAND    CLOUDY    63  59  88 SW30G38   29.39S
INTL FALLS     LGT RAIN  64  50  60 SW15G29   29.55S
WASKISH          N/A     64  55  72 SW28G41   29.57F
BIG FORK       CLOUDY    64  48  55 SW17G33   29.64R
LONGVILLE      CLOUDY    64  48  55 SW21G29   29.72S
GRAND RAPIDS   CLOUDY    64  46  52 SW20G29   29.70S
CRANE LAKE     MOCLDY    63  48  59 S10G22    29.62S
ORR            PTCLDY    63  45  51 SW12      29.60F
COOK           CLEAR     64  48  55 SW10      29.64F
WALKER         CLOUDY    63  49  59 SW20G35   29.69S
$$
MNZ012-019>021-037-291000-
   Northeast Minnesota

CITY           SKY/WX    TMP DP  RH WIND       PRES   REMARKS
DULUTH         CLEAR     64  50  60 SW14      29.73F
ELY            CLEAR     64  48  55 SW15G21   29.65F
HIBBING        CLEAR     64  47  53 SW9G17    29.68S
EVELETH        CLEAR     63  46  55 SW14G22   29.69S
DULUTH HARBOR  CLEAR     68  55  64 S20       29.72F
TWO HARBORS    CLEAR     66  57  72 SW10      29.70F
SILVER BAY     CLEAR     66  55  68 S13       29.69F
GRAND MARAIS     N/A     57  56  96 SW5       29.68F
G MARAIS ARPRT CLEAR     63  50  63 S9        29.71F
$$
MNZ029>031-032-039>041-046>048-054>057-064-291000-
   West Central Minnesota

CITY           SKY/WX    TMP DP  RH WIND       PRES   REMARKS
FERGUS FALLS   CLEAR     63  50  63 W15G23    29.83S
WHEATON        CLEAR     63  48  59 SW14G22   29.90F
MORRIS         CLEAR     61  52  72 W12       29.89S
ALEXANDRIA     CLEAR     65  48  54 W22G39    29.86F
ELBOW LAKE     FAIR      63  49  60 W21G30    29.85F
WADENA         CLOUDY    64  48  55 W22G35    29.78S
GLENWOOD       CLEAR     64  50  59 SW22G29   29.88S
APPLETON       CLEAR     63  52  67 SW8       29.92S
BENSON         CLEAR     63  50  63 W10G17    29.91S
ORTONVILLE     CLEAR     64  48  55 W13G22    29.92R
MADISON        CLEAR     63  50  63 SW12      29.94F
WILLMAR        FAIR      63  54  72 SW14      29.95R
$$
MNZ033>034-036-042>043-049>051-058-059-291000-
   Central Minnesota

CITY           SKY/WX    TMP DP  RH WIND       PRES   REMARKS
ST CLOUD       CLEAR     68  48  48 W20       29.86F
SAUK CENTRE    FAIR      65  49  56 SW20G25   29.87S
PAYNESVILLE    CLEAR     63  49  61 S16G23    29.91S
AITKIN         CLEAR     66  48  52 SW14G32   29.75S
PINE RIVER     CLOUDY    64  50  59 SW12G22   29.78F
BRAINERD       CLEAR     66  47  50 W26G35    29.78S
STAPLES        CLOUDY    64  46  52 W21G33    29.80R
LONG PRAIRIE   FAIR      63  46  55 SW17G31   29.86R
LITTLE FALLS   CLEAR     64  46  52 SW12G17   29.83S
LITCHFIELD     CLEAR     63  55  77 SW6       29.93S
BUFFALO        CLEAR     64  52  65 SW8       29.91S
MAPLE LAKE     CLEAR     64  52  63 SW8       29.90S
$$
MNZ037-044-045-052-053-291000-
   East Central Minnesota

CITY           SKY/WX    TMP DP  RH WIND       PRES   REMARKS
PRINCETON      CLEAR     66  52  59 SW8       29.86S
MORA           CLEAR     61  50  67 SW6       29.84F
CAMBRIDGE      CLEAR     66  54  63 S8        29.84F
RUSH CITY      PTCLDY    64  55  75 S8G16     29.84F
MOOSE LAKE     CLEAR     61  50  67 S9        29.75F
HINCKLEY       FAIR      63  54  72 SW12      29.81F
MCGREGOR       CLEAR     66  46  48 SW14G22   29.75F
$$
MNZ071>073-080-081-089-090-097-098-291000-
   Southwest Minnesota

CITY           SKY/WX    TMP DP  RH WIND       PRES   REMARKS
MONTEVIDEO     CLEAR     64  52  63 W9G20     29.96S
GRANITE FALLS  CLEAR     63  51  65 SW13      29.98S
CANBY          CLEAR     63  50  62 SW13G18   29.99S
MARSHALL       CLEAR     61  50  67 SW12      30.00R
REDWOOD FALLS  CLEAR     64  52  64 SW13      29.97R
OLIVIA         CLEAR     59  50  72 W13       29.96R
PIPESTONE      CLEAR     55  52  88 SW5       30.06R
WINDOM         CLEAR     61  54  77 SW5       30.02S
WORTHINGTON    CLEAR     57  50  77 SW9       30.06R
JACKSON        CLEAR     59  54  82 SW6       30.05S
TRACY          CLEAR     63  54  72 W10       30.02R
SLAYTON        CLEAR     60  53  75 CALM      30.05R
$$
MNZ065>067-074>077-082>085-091>093-291000-
   South Central Minnesota

CITY           SKY/WX    TMP DP  RH WIND       PRES   REMARKS
MANKATO        CLEAR     61  55  82 SW7       29.98S
NEW ULM        CLEAR     61  54  77 SW8       29.97F
ST JAMES       CLEAR     61  55  82 SW8       30.02R
FAIRMONT       CLEAR     63  52  67 W8        30.02S
GLENCOE        CLEAR     62  56  81 SW8       29.94S
FARIBAULT      CLEAR     63  59  88 S3        29.98S
OWATONNA       CLEAR     63  57  82 SW7       29.99S
WASECA         CLEAR     59  55  88 SW6       30.01R
ALBERT LEA     PTCLDY    64  59  82 W3        30.02R
$$
MNZ078>079-086>088-094>096-291000-
   Southeast Minnesota

CITY           SKY/WX    TMP DP  RH WIND       PRES   REMARKS
ROCHESTER      PTCLDY    63  58  83 W12       29.99S
RED WING       CLEAR     66  57  72 W6        29.93R
STANTON        CLEAR     62  57  83 S5        29.94F
DODGE CENTER   PTCLDY    61  57  88 W8        29.99S
WINONA         CLOUDY    72  59  64 W5        29.95R
AUSTIN         MOCLDY    63  59  88 SW5       30.01R
PRESTON        CLOUDY    64  58  81 W9        29.99S
$$
ABBREVIATIONS USED IN REMARKS
   TC - TEMPERATURES IN CELSIUS
  WCI - WIND CHILL INDEX
   HX - HEAT INDEX
  VSB - VISIBILITY
$$


USA.gov is the U.S. government's official web portal to all federal, state and local government web resources and services.